Overview Statistics Trail Chart Weather Telemetry Raw packets
 

This is the latest recevied weather packets stored in our database for station/object WX0ABE-13. If no packets are shown the sender has not sent any weather packets the latest 10 day(s).

<< 35 36 37 38 39 40 41 >>
Time Temp. Humidity Pressure Rain* Wind** Luminosity Snow
1788110607 26.11° C 56% 1016.2 hPa 0 mm - 368 W/m² -
1788110302 26.11° C 57% 1016.1 hPa 0 mm - 552 W/m² -
1788109998 25.56° C 60% 1016.3 hPa 0 mm - 627 W/m² -
1788109693 24.44° C 61% 1016.3 hPa 0 mm - 502 W/m² -
1788109393 24.44° C 60% 1016.3 hPa 0 mm - 323 W/m² -
1788109091 24.44° C 60% 1016.2 hPa 0 mm - 653 W/m² -
1788108787 23.89° C 61% 1016.2 hPa 0 mm - 615 W/m² -
1788108483 23.89° C 61% 1016.4 hPa 0 mm - 242 W/m² -
1788108179 23.89° C 61% 1016.3 hPa 0 mm - 210 W/m² -
1788107875 23.89° C 61% 1016.3 hPa 0 mm - 201 W/m² -
1788107571 23.89° C 62% 1016.3 hPa 0 mm - 342 W/m² -
1788107265 23.89° C 61% 1016.3 hPa 0 mm - 244 W/m² -
1788106961 23.33° C 63% 1016.3 hPa 0 mm - 485 W/m² -
1788106657 22.78° C 64% 1016.2 hPa 0 mm - 336 W/m² -
1788106356 22.78° C 64% 1016.3 hPa 0 mm - 293 W/m² -
1788106052 22.78° C 64% 1016.4 hPa 0 mm - 299 W/m² -
1788105752 22.22° C 66% 1016.4 hPa 0 mm - 217 W/m² -
1788105449 22.22° C 65% 1016.2 hPa 0 mm - 196 W/m² -
1788105144 22.22° C 64% 1016.1 hPa 0 mm - 201 W/m² -
1788104839 21.67° C 67% 1016.4 hPa 0 mm - 173 W/m² -
1788104535 21.67° C 68% 1016.3 hPa 0 mm - 343 W/m² -
1788104232 21.67° C 67% 1016.4 hPa 0 mm - 264 W/m² -
1788103932 21.11° C 67% 1016.2 hPa 0 mm - 413 W/m² -
1788103631 21.11° C 69% 1016.3 hPa 0 mm - 379 W/m² -
1788103330 20.56° C 71% 1016.4 hPa 0 mm - 345 W/m² -

* Rain latest hour (hover to see other rain measurements)
** Current wind speed in m/s (hover to see current wind gust speed)